COSMOS 292

导读

**COSMOS 292**是苏联(CIS)于1969年8月13日发射的军用卫星,隶属于苏联“宇宙”(COSMOS)卫星系列,在冷战太空对抗背景下执行航天任务。作为苏联早期空间技术发展的产物,这类卫星多承担侦察、技术试验等战略任务,推动了苏联空间军事能力与航天技术的进步,在冷战太空博弈中留下了印记。

基本信息
目录编号:
4070
目录名称:
COSMOS 292
国际标识:
1969-070A
轨道中心:
EARTH
卫星名称:
COSMOS 292
卫星全名:
--
卫星状态:
在轨 (已飞行20851 天)
发射日期:
1969-08-13 UTC
国别 :
俄罗斯(独联体) (CIS)
星等 :
--
该卫星已列入 空间交会检测服务 Space Conjunction Data Service (SCDS) ,当前飞行风险评估等级: 无高风险
轨道信息
数据来源 国际轨道数据 AOE轨道数据
星历时间 2026-09-14T07:07:50+0800
7小时前
查看轨道信息
2026-09-10T00:00:00+0800
4天前
查看轨道信息
半长轴 7085.905km 7085.915km
偏心率 0.0008646 0.0008571
轨道倾角 74.048° 74.050°
近地点辐角 69.961° 78.994°
升交点赤经 137.148° 145.283°
平近点角 290.248° 94.605°
近地点 701.641km 701.704km
远地点 713.895km 713.852km
周期 98.936分钟 98.936分钟
每日圈数 14.554919 14.554888
详细信息
使用方式:
暂无
2D轨道图
3D轨道图
轨道高度分析图
轨道倾角分析图
轨道综合分析图
查看轨道综合分析图
交会数据列表
事件ID 空间交会对象 最接近时刻(TCA) 交会距离 交会风险概率(CRP) 交会风险指数(CRI) 操作
CDM_260916-005100-407005-451222
2026-09-16T
00:51:45+0000
2.324 km
极远距离
2.031372E-6 低风险 0.41
与全量物体交会距离演化趋势 订阅飞行安全评估服务
与全量物体交会风险概率演化趋势 订阅飞行安全评估服务